| time (UTC) | temp F | wind direction | speed MPH | gust MPH | rain 1hr in | rain 24hr in | rain mn in | humidity % | barometer mb |
| 20260510152553 | 79 | 55 | 1.0 | 4.0 | 0.00 | 1.29 | 0.00 | 79 | 1016.5 |
| 20260510152056 | 78 | 359 | 1.0 | 4.0 | 0.00 | 1.29 | 0.00 | 80 | 1016.5 |
| 20260510151555 | 78 | 8 | 1.0 | 2.0 | 0.00 | 1.29 | 0.00 | 81 | 1016.8 |
| 20260510151053 | 77 | 94 | 1.0 | 5.0 | 0.00 | 1.29 | 0.00 | 82 | 1017.0 |
| 20260510150554 | 76 | 75 | 0.0 | 5.0 | 0.00 | 1.29 | 0.00 | 85 | 1016.8 |
| 20260510145554 | 75 | 11 | 2.0 | 5.0 | 0.00 | 1.35 | 0.00 | 86 | 1017.0 |
| 20260510145054 | 75 | 1 | 0.0 | 2.0 | 0.00 | 1.35 | 0.00 | 90 | 1017.1 |
| 20260510144610 | 74 | 0 | 0.0 | 4.0 | 0.00 | 1.35 | 0.00 | 90 | 1017.1 |
| 20260510144054 | 74 | 8 | 1.0 | 6.0 | 0.00 | 1.35 | 0.00 | 90 | 1017.1 |
| 20260510143554 | 73 | 1 | 1.0 | 6.0 | 0.00 | 1.35 | 0.00 | 90 | 1017.0 |
| 20260510143059 | 73 | 1 | 1.0 | 4.0 | 0.00 | 1.35 | 0.00 | 92 | 1017.0 |
| 20260510142553 | 73 | 10 | 1.0 | 4.0 | 0.00 | 1.35 | 0.00 | 92 | 1016.9 |
| 20260510142053 | 73 | 2 | 1.0 | 5.0 | 0.00 | 1.35 | 0.00 | 92 | 1016.9 |
| 20260510141558 | 72 | 37 | 0.0 | 5.0 | 0.00 | 1.35 | 0.00 | 93 | 1016.9 |
| 20260510141053 | 72 | 0 | 1.0 | 5.0 | 0.00 | 1.35 | 0.00 | 93 | 1016.8 |
| 20260510140559 | 71 | 1 | 1.0 | 5.0 | 0.00 | 1.35 | 0.00 | 93 | 1016.8 |
| 20260510140054 | 71 | 0 | 1.0 | 4.0 | 0.00 | 1.35 | 0.00 | 94 | 1016.7 |
| 20260510135554 | 71 | 0 | 1.0 | 4.0 | 0.00 | 1.98 | 0.00 | 94 | 1016.7 |
| 20260510135054 | 71 | 0 | 0.0 | 4.0 | 0.00 | 1.98 | 0.00 | 94 | 1016.8 |
| 20260510134557 | 70 | 0 | 1.0 | 4.0 | 0.00 | 1.98 | 0.00 | 94 | 1016.8 |
| 20260510134057 | 70 | 1 | 0.0 | 3.0 | 0.00 | 1.98 | 0.00 | 94 | 1016.7 |
| 20260510133555 | 70 | 0 | 0.0 | 3.0 | 0.00 | 1.98 | 0.00 | 94 | 1016.8 |
| 20260510133058 | 70 | 21 | 1.0 | 3.0 | 0.00 | 1.98 | 0.00 | 94 | 1016.8 |
| 20260510132552 | 70 | 359 | 0.0 | 3.0 | 0.00 | 1.98 | 0.00 | 95 | 1016.8 |
| 20260510132055 | 70 | 9 | 0.0 | 3.0 | 0.00 | 1.98 | 0.00 | 95 | 1016.6 |
| 20260510131603 | 70 | 360 | 1.0 | 3.0 | 0.00 | 1.98 | 0.00 | 95 | 1016.4 |
| 20260510131055 | 69 | 360 | 0.0 | 3.0 | 0.00 | 1.98 | 0.00 | 95 | 1016.4 |
| 20260510130559 | 69 | 0 | 0.0 | 3.0 | 0.00 | 1.98 | 0.00 | 95 | 1016.4 |
| 20260510130056 | 69 | 0 | 1.0 | 3.0 | 0.00 | 1.98 | 0.00 | 95 | 1016.2 |
| 20260510125554 | 69 | 42 | 2.0 | 3.0 | 0.00 | 1.98 | 0.00 | 95 | 1016.1 |
| 20260510125054 | 69 | 1 | 1.0 | 3.0 | 0.00 | 1.98 | 0.00 | 95 | 1016.0 |
| 20260510124612 | 69 | 1 | 1.0 | 3.0 | 0.00 | 1.98 | 0.00 | 95 | 1015.9 |
| 20260510124056 | 69 | 25 | 1.0 | 2.0 | 0.00 | 1.98 | 0.00 | 95 | 1015.7 |
| 20260510123552 | 69 | 25 | 0.0 | 2.0 | 0.00 | 1.98 | 0.00 | 95 | 1015.5 |
| 20260510123110 | 68 | 0 | 0.0 | 2.0 | 0.00 | 1.98 | 0.00 | 95 | 1015.4 |
| 20260510122552 | 68 | 0 | 0.0 | 2.0 | 0.00 | 1.98 | 0.00 | 95 | 1015.4 |
| 20260510122052 | 68 | 0 | 0.0 | 2.0 | 0.00 | 1.98 | 0.00 | 95 | 1015.4 |
| 20260510121559 | 68 | 0 | 0.0 | 0.0 | 0.00 | 1.98 | 0.00 | 95 | 1015.5 |
| 20260510121052 | 68 | 0 | 0.0 | 0.0 | 0.00 | 1.98 | 0.00 | 95 | 1015.4 |
| 20260510120554 | 68 | 0 | 0.0 | 2.0 | 0.00 | 1.98 | 0.00 | 95 | 1015.4 |
| 20260510120055 | 68 | 0 | 0.0 | 2.0 | 0.00 | 1.98 | 0.00 | 95 | 1015.5 |
| 20260510115554 | 68 | 0 | 0.0 | 2.0 | 0.00 | 1.98 | 0.00 | 95 | 1015.3 |
| 20260510115054 | 67 | 0 | 0.0 | 2.0 | 0.00 | 1.98 | 0.00 | 95 | 1015.3 |
| 20260510114605 | 67 | 2 | 0.0 | 2.0 | 0.00 | 1.98 | 0.00 | 94 | 1015.2 |
| 20260510114054 | 67 | 0 | 0.0 | 1.0 | 0.00 | 1.98 | 0.00 | 94 | 1015.1 |
| 20260510113554 | 67 | 0 | 0.0 | 2.0 | 0.00 | 1.98 | 0.00 | 94 | 1015.0 |
| 20260510113102 | 67 | 0 | 0.0 | 2.0 | 0.00 | 1.98 | 0.00 | 94 | 1014.7 |
| 20260510112552 | 67 | 101 | 0.0 | 2.0 | 0.00 | 1.98 | 0.00 | 94 | 1014.7 |
| 20260510112052 | 67 | 0 | 0.0 | 2.0 | 0.00 | 1.98 | 0.00 | 94 | 1014.7 |
| 20260510111614 | 68 | 39 | 0.0 | 2.0 | 0.00 | 1.98 | 0.00 | 94 | 1014.6 |
| 20260510111055 | 67 | 0 | 0.0 | 2.0 | 0.00 | 1.98 | 0.00 | 94 | 1014.5 |
| 20260510110552 | 67 | 0 | 0.0 | 1.0 | 0.00 | 1.98 | 0.00 | 94 | 1014.4 |
| 20260510110055 | 67 | 0 | 0.0 | 1.0 | 0.00 | 1.98 | 0.00 | 94 | 1014.3 |
| 20260510105552 | 67 | 0 | 0.0 | 1.0 | 0.00 | 1.98 | 0.00 | 94 | 1014.3 |
| 20260510105052 | 67 | 0 | 0.0 | 0.0 | 0.00 | 1.98 | 0.00 | 94 | 1014.2 |
| 20260510104604 | 67 | 0 | 0.0 | 2.0 | 0.00 | 1.98 | 0.00 | 94 | 1014.1 |
| 20260510104051 | 67 | 0 | 0.0 | 2.0 | 0.00 | 1.98 | 0.00 | 94 | 1013.9 |
| 20260510103553 | 67 | 0 | 0.0 | 1.0 | 0.00 | 1.98 | 0.00 | 94 | 1013.9 |
| 20260510103056 | 67 | 0 | 0.0 | 1.0 | 0.00 | 1.98 | 0.00 | 94 | 1013.8 |
| 20260510102555 | 67 | 0 | 0.0 | 2.0 | 0.00 | 1.98 | 0.00 | 94 | 1013.5 |
| 20260510102054 | 67 | 0 | 0.0 | 2.0 | 0.00 | 1.98 | 0.00 | 94 | 1013.7 |
| 20260510101555 | 67 | 0 | 0.0 | 2.0 | 0.00 | 1.98 | 0.00 | 94 | 1013.6 |
| 20260510101054 | 67 | 0 | 0.0 | 2.0 | 0.00 | 1.98 | 0.00 | 94 | 1013.6 |
| 20260510100558 | 67 | 0 | 0.0 | 2.0 | 0.00 | 1.98 | 0.00 | 94 | 1013.5 |
| 20260510100059 | 67 | 0 | 0.0 | 2.0 | 0.00 | 1.98 | 0.00 | 94 | 1013.4 |
| 20260510095554 | 67 | 0 | 0.0 | 2.0 | 0.00 | 1.98 | 0.00 | 94 | 1013.4 |
| 20260510095058 | 67 | 0 | 0.0 | 2.0 | 0.00 | 1.98 | 0.00 | 94 | 1013.4 |
| 20260510094551 | 67 | 1 | 0.0 | 0.0 | 0.00 | 1.98 | 0.00 | 94 | 1013.4 |
| 20260510094054 | 67 | 0 | 0.0 | 1.0 | 0.00 | 1.98 | 0.00 | 94 | 1013.5 |
| 20260510093554 | 67 | 0 | 0.0 | 1.0 | 0.00 | 1.98 | 0.00 | 94 | 1013.5 |
| 20260510093055 | 67 | 0 | 0.0 | 0.0 | 0.00 | 1.98 | 0.00 | 94 | 1013.5 |
| 20260510092554 | 67 | 0 | 0.0 | 1.0 | 0.00 | 1.98 | 0.00 | 94 | 1013.4 |
| 20260510092053 | 67 | 0 | 0.0 | 4.0 | 0.00 | 1.98 | 0.00 | 94 | 1013.3 |
| 20260510091559 | 67 | 1 | 1.0 | 4.0 | 0.00 | 1.98 | 0.00 | 94 | 1013.3 |
| 20260510091053 | 67 | 1 | 1.0 | 2.0 | 0.00 | 1.98 | 0.00 | 94 | 1013.1 |
| 20260510090555 | 67 | 19 | 1.0 | 2.0 | 0.00 | 1.98 | 0.00 | 94 | 1013.1 |
| 20260510090104 | 67 | 360 | 0.0 | 2.0 | 0.00 | 1.98 | 0.00 | 94 | 1013.1 |
| 20260510085557 | 67 | 1 | 0.0 | 2.0 | 0.00 | 1.98 | 0.00 | 94 | 1013.2 |
| 20260510085054 | 66 | 0 | 0.0 | 1.0 | 0.00 | 1.98 | 0.00 | 94 | 1013.2 |
| 20260510084559 | 66 | 0 | 0.0 | 2.0 | 0.00 | 1.98 | 0.00 | 94 | 1013.2 |
| 20260510084054 | 66 | 2 | 0.0 | 2.0 | 0.00 | 1.98 | 0.00 | 94 | 1013.2 |
| 20260510083554 | 66 | 2 | 0.0 | 0.0 | 0.00 | 1.98 | 0.00 | 94 | 1013.2 |
| 20260510083054 | 66 | 0 | 0.0 | 0.0 | 0.00 | 1.98 | 0.00 | 94 | 1013.2 |
| 20260510082553 | 65 | 0 | 0.0 | 0.0 | 0.00 | 1.98 | 0.00 | 94 | 1013.3 |
| 20260510082054 | 65 | 0 | 0.0 | 0.0 | 0.00 | 1.98 | 0.00 | 94 | 1013.2 |
| 20260510081600 | 66 | 0 | 0.0 | 0.0 | 0.00 | 1.98 | 0.00 | 94 | 1013.1 |
| 20260510081054 | 66 | 0 | 0.0 | 0.0 | 0.00 | 1.98 | 0.00 | 94 | 1013.0 |
| 20260510080554 | 65 | 0 | 0.0 | 0.0 | 0.00 | 1.98 | 0.00 | 94 | 1012.9 |
| 20260510075557 | 66 | 0 | 0.0 | 0.0 | 0.00 | 1.98 | 0.00 | 94 | 1012.9 |
| 20260510075058 | 66 | 0 | 0.0 | 0.0 | 0.00 | 1.98 | 0.00 | 94 | 1012.9 |
| 20260510074553 | 66 | 0 | 0.0 | 0.0 | 0.00 | 1.98 | 0.00 | 94 | 1012.9 |
| 20260510074055 | 66 | 0 | 0.0 | 0.0 | 0.00 | 1.98 | 0.00 | 94 | 1012.9 |
| 20260510073554 | 66 | 0 | 0.0 | 0.0 | 0.00 | 1.98 | 0.00 | 94 | 1012.9 |
| 20260510073055 | 66 | 0 | 0.0 | 0.0 | 0.00 | 1.98 | 0.00 | 94 | 1012.8 |
| 20260510072556 | 66 | 0 | 0.0 | 0.0 | 0.00 | 1.98 | 0.00 | 94 | 1012.6 |
| 20260510072053 | 66 | 0 | 0.0 | 0.0 | 0.00 | 1.98 | 0.00 | 94 | 1012.6 |
| 20260510071555 | 66 | 0 | 0.0 | 2.0 | 0.00 | 1.98 | 0.00 | 94 | 1012.5 |
| 20260510071054 | 66 | 0 | 0.0 | 2.0 | 0.00 | 1.98 | 0.00 | 94 | 1012.5 |
| 20260510070556 | 66 | 0 | 0.0 | 2.0 | 0.00 | 1.98 | 0.00 | 94 | 1012.6 |
| 20260510070106 | 66 | 2 | 0.0 | 2.0 | 0.00 | 1.98 | 0.00 | 94 | 1012.8 |
| 20260510065556 | 66 | 2 | 0.0 | 2.0 | 0.00 | 1.98 | 0.00 | 94 | 1012.8 |
| 20260510065055 | 66 | 0 | 0.0 | 0.0 | 0.00 | 1.98 | 0.00 | 94 | 1012.7 |
| 20260510064608 | 66 | 0 | 0.0 | 0.0 | 0.00 | 1.98 | 0.00 | 94 | 1012.7 |
| 20260510064055 | 66 | 0 | 0.0 | 0.0 | 0.00 | 1.98 | 0.00 | 94 | 1012.8 |
| 20260510063555 | 66 | 0 | 0.0 | 0.0 | 0.00 | 1.98 | 0.00 | 94 | 1012.8 |
| 20260510063055 | 66 | 0 | 0.0 | 3.0 | 0.00 | 1.98 | 0.00 | 94 | 1012.7 |
| 20260510062558 | 67 | 0 | 0.0 | 3.0 | 0.00 | 1.98 | 0.00 | 94 | 1012.6 |
| 20260510062052 | 67 | 1 | 1.0 | 2.0 | 0.00 | 1.98 | 0.00 | 94 | 1012.7 |
| 20260510061554 | 66 | 32 | 0.0 | 2.0 | 0.00 | 1.98 | 0.00 | 94 | 1012.7 |
| 20260510061102 | 66 | 27 | 0.0 | 2.0 | 0.00 | 1.98 | 0.00 | 94 | 1012.8 |
| 20260510060557 | 66 | 0 | 0.0 | 0.0 | 0.00 | 1.98 | 0.00 | 94 | 1012.7 |
| 20260510060056 | 66 | 0 | 0.0 | 0.0 | 0.00 | 1.98 | 0.00 | 94 | 1012.8 |
| 20260510055554 | 67 | 0 | 0.0 | 0.0 | 0.00 | 1.98 | 0.00 | 94 | 1012.8 |
| 20260510055055 | 67 | 0 | 0.0 | 0.0 | 0.00 | 1.98 | 0.00 | 93 | 1012.8 |
| 20260510054600 | 67 | 0 | 0.0 | 0.0 | 0.00 | 1.98 | 0.00 | 94 | 1012.9 |
| 20260510054055 | 67 | 0 | 0.0 | 2.0 | 0.00 | 1.98 | 0.00 | 93 | 1012.7 |
| 20260510053555 | 67 | 0 | 0.0 | 2.0 | 0.00 | 1.98 | 0.00 | 93 | 1012.7 |
| 20260510053057 | 67 | 0 | 0.0 | 0.0 | 0.00 | 1.98 | 0.00 | 94 | 1012.5 |
| 20260510052556 | 67 | 0 | 0.0 | 0.0 | 0.00 | 1.98 | 0.00 | 93 | 1012.5 |
| 20260510052055 | 67 | 0 | 0.0 | 1.0 | 0.00 | 1.98 | 0.00 | 94 | 1012.6 |
| 20260510051608 | 68 | 0 | 0.0 | 2.0 | 0.00 | 1.98 | 0.00 | 93 | 1012.7 |
| 20260510051604 | 68 | 0 | 0.0 | 2.0 | 0.00 | 1.98 | 0.00 | 94 | 1012.5 |
| 20260510050555 | 68 | 0 | 0.0 | 2.0 | 0.00 | 1.98 | 0.00 | 94 | 1012.6 |
| 20260510045552 | 68 | 0 | 0.0 | 0.0 | 0.00 | 1.98 | 1.98 | 94 | 1012.8 |
| 20260510045052 | 68 | 0 | 0.0 | 0.0 | 0.00 | 1.98 | 1.98 | 94 | 1012.8 |
| 20260510044602 | 68 | 0 | 0.0 | 0.0 | 0.00 | 1.98 | 1.98 | 94 | 1012.7 |
| 20260510044053 | 68 | 0 | 0.0 | 0.0 | 0.00 | 1.98 | 1.98 | 94 | 1012.8 |
| 20260510043553 | 68 | 0 | 0.0 | 0.0 | 0.00 | 1.98 | 1.98 | 94 | 1013.0 |
| 20260510043051 | 68 | 0 | 0.0 | 2.0 | 0.00 | 1.98 | 1.98 | 93 | 1013.0 |
| 20260510042552 | 68 | 0 | 0.0 | 2.0 | 0.00 | 1.98 | 1.98 | 94 | 1013.1 |
| 20260510042052 | 68 | 0 | 0.0 | 2.0 | 0.00 | 1.98 | 1.98 | 94 | 1013.0 |
| 20260510041606 | 68 | 0 | 0.0 | 2.0 | 0.00 | 1.98 | 1.98 | 94 | 1012.8 |
| 20260510041052 | 68 | 0 | 0.0 | 2.0 | 0.00 | 1.98 | 1.98 | 94 | 1012.7 |
| 20260510040552 | 68 | 164 | 0.0 | 2.0 | 0.00 | 1.98 | 1.98 | 94 | 1012.6 |
| 20260510040054 | 68 | 110 | 0.0 | 2.0 | 0.00 | 1.98 | 1.98 | 94 | 1012.7 |
| 20260510035552 | 68 | 0 | 0.0 | 2.0 | 0.00 | 1.98 | 1.98 | 94 | 1012.7 |
| 20260510035052 | 68 | 0 | 0.0 | 1.0 | 0.00 | 1.98 | 1.98 | 94 | 1013.0 |
| 20260510034602 | 67 | 0 | 0.0 | 1.0 | 0.00 | 1.98 | 1.98 | 94 | 1013.2 |
| 20260510034054 | 67 | 0 | 0.0 | 0.0 | 0.00 | 1.98 | 1.98 | 93 | 1013.3 |
| 20260510033554 | 67 | 0 | 0.0 | 2.0 | 0.00 | 1.98 | 1.98 | 93 | 1013.5 |
| 20260510033057 | 67 | 0 | 0.0 | 2.0 | 0.00 | 1.98 | 1.98 | 93 | 1013.7 |
| 20260510032552 | 67 | 0 | 0.0 | 2.0 | 0.00 | 1.98 | 1.98 | 94 | 1013.8 |
| 20260510032053 | 67 | 0 | 0.0 | 2.0 | 0.00 | 1.98 | 1.98 | 94 | 1013.7 |
| 20260510031604 | 67 | 0 | 0.0 | 0.0 | 0.00 | 1.98 | 1.98 | 93 | 1013.7 |
| 20260510031053 | 67 | 0 | 0.0 | 0.0 | 0.00 | 1.98 | 1.98 | 93 | 1013.7 |
| 20260510030554 | 67 | 0 | 0.0 | 0.0 | 0.00 | 1.98 | 1.98 | 93 | 1013.8 |
| 20260510030104 | 67 | 0 | 0.0 | 0.0 | 0.00 | 1.98 | 1.98 | 93 | 1013.8 |
| 20260510025552 | 67 | 0 | 0.0 | 0.0 | 0.00 | 1.98 | 1.98 | 93 | 1013.7 |
| 20260510025055 | 67 | 0 | 0.0 | 2.0 | 0.00 | 1.98 | 1.98 | 93 | 1013.7 |
| 20260510024555 | 67 | 0 | 0.0 | 2.0 | 0.00 | 1.98 | 1.98 | 93 | 1013.7 |
| 20260510024052 | 67 | 0 | 0.0 | 1.0 | 0.00 | 1.98 | 1.98 | 93 | 1013.8 |
| 20260510023556 | 67 | 0 | 0.0 | 0.0 | 0.00 | 1.98 | 1.98 | 93 | 1013.8 |
| 20260510023055 | 67 | 0 | 0.0 | 0.0 | 0.00 | 1.98 | 1.98 | 93 | 1013.6 |
| 20260510022557 | 67 | 0 | 0.0 | 0.0 | 0.00 | 1.98 | 1.98 | 93 | 1013.4 |
| 20260510022056 | 67 | 0 | 0.0 | 0.0 | 0.00 | 1.98 | 1.98 | 93 | 1013.4 |
| 20260510021551 | 67 | 0 | 0.0 | 0.0 | 0.00 | 1.98 | 1.98 | 93 | 1013.2 |
| 20260510021052 | 67 | 0 | 0.0 | 0.0 | 0.00 | 1.98 | 1.98 | 93 | 1013.2 |
| 20260510020552 | 68 | 0 | 0.0 | 0.0 | 0.00 | 1.98 | 1.98 | 93 | 1013.4 |
| 20260510020054 | 68 | 0 | 0.0 | 0.0 | 0.00 | 1.98 | 1.98 | 93 | 1013.3 |
| 20260510015553 | 68 | 0 | 0.0 | 0.0 | 0.00 | 1.98 | 1.98 | 93 | 1013.1 |
| 20260510015052 | 68 | 0 | 0.0 | 2.0 | 0.00 | 1.98 | 1.98 | 93 | 1013.1 |
| 20260510014600 | 68 | 0 | 0.0 | 2.0 | 0.01 | 1.98 | 1.98 | 93 | 1013.0 |
| 20260510014052 | 68 | 0 | 0.0 | 0.0 | 0.01 | 1.98 | 1.98 | 93 | 1013.0 |
| 20260510013551 | 68 | 0 | 0.0 | 1.0 | 0.01 | 1.98 | 1.98 | 93 | 1013.0 |
| 20260510013058 | 68 | 0 | 0.0 | 2.0 | 0.02 | 1.98 | 1.98 | 93 | 1012.8 |
| 20260510012553 | 68 | 0 | 0.0 | 2.0 | 0.02 | 1.98 | 1.98 | 93 | 1012.8 |
| 20260510012053 | 68 | 0 | 0.0 | 2.0 | 0.02 | 1.98 | 1.98 | 93 | 1012.7 |
| 20260510011552 | 68 | 0 | 0.0 | 2.0 | 0.02 | 1.98 | 1.98 | 93 | 1012.8 |
| 20260510011053 | 68 | 0 | 0.0 | 2.0 | 0.02 | 1.98 | 1.98 | 93 | 1012.7 |
| 20260510010552 | 68 | 0 | 0.0 | 2.0 | 0.02 | 1.98 | 1.98 | 93 | 1012.7 |
| 20260510010054 | 68 | 0 | 0.0 | 2.0 | 0.02 | 1.98 | 1.98 | 93 | 1012.7 |
| 20260510005552 | 68 | 0 | 0.0 | 2.0 | 0.02 | 1.98 | 1.98 | 93 | 1012.8 |
| 20260510005056 | 68 | 0 | 0.0 | 2.0 | 0.02 | 1.98 | 1.98 | 93 | 1012.8 |
| 20260510004553 | 68 | 0 | 0.0 | 2.0 | 0.01 | 1.97 | 1.97 | 93 | 1012.8 |
| 20260510004052 | 68 | 0 | 0.0 | 2.0 | 0.01 | 1.97 | 1.97 | 93 | 1012.9 |
| 20260510003556 | 68 | 0 | 0.0 | 2.0 | 0.01 | 1.97 | 1.97 | 93 | 1012.6 |
| 20260510003058 | 68 | 0 | 0.0 | 0.0 | 0.00 | 1.96 | 1.96 | 93 | 1012.8 |
| 20260510002557 | 68 | 0 | 0.0 | 0.0 | 0.01 | 1.96 | 1.96 | 93 | 1012.7 |
| 20260510002052 | 68 | 0 | 0.0 | 0.0 | 0.01 | 1.96 | 1.96 | 93 | 1012.7 |
| 20260510001554 | 68 | 0 | 0.0 | 0.0 | 0.02 | 1.96 | 1.96 | 93 | 1012.7 |
| 20260510001053 | 68 | 0 | 0.0 | 1.0 | 0.03 | 1.96 | 1.96 | 93 | 1012.7 |
| 20260510000557 | 68 | 0 | 0.0 | 1.0 | 0.03 | 1.96 | 1.96 | 93 | 1012.6 |
| 20260509235555 | 69 | 0 | 0.0 | 0.0 | 0.06 | 1.96 | 1.96 | 93 | 1012.7 |
| 20260509235052 | 68 | 0 | 0.0 | 1.0 | 0.07 | 1.96 | 1.96 | 93 | 1012.8 |
| 20260509234604 | 69 | 0 | 0.0 | 2.0 | 0.08 | 1.96 | 1.96 | 93 | 1012.9 |
| 20260509234056 | 69 | 0 | 0.0 | 2.0 | 0.08 | 1.96 | 1.96 | 93 | 1012.7 |
| 20260509233555 | 69 | 0 | 0.0 | 2.0 | 0.08 | 1.96 | 1.96 | 93 | 1012.7 |
| 20260509233059 | 69 | 0 | 0.0 | 2.0 | 0.08 | 1.96 | 1.96 | 93 | 1012.6 |
| 20260509232555 | 69 | 0 | 0.0 | 2.0 | 0.07 | 1.95 | 1.95 | 93 | 1012.7 |
| 20260509232054 | 69 | 0 | 0.0 | 2.0 | 0.07 | 1.95 | 1.95 | 93 | 1012.7 |
| 20260509231610 | 69 | 0 | 0.0 | 1.0 | 0.06 | 1.94 | 1.94 | 93 | 1012.9 |
| 20260509231053 | 69 | 0 | 0.0 | 2.0 | 0.05 | 1.93 | 1.93 | 93 | 1013.0 |
| 20260509230552 | 69 | 179 | 0.0 | 2.0 | 0.05 | 1.93 | 1.93 | 93 | 1012.9 |
| 20260509230106 | 69 | 44 | 0.0 | 2.0 | 0.04 | 1.92 | 1.92 | 93 | 1012.7 |
| 20260509225553 | 69 | 0 | 0.0 | 2.0 | 0.02 | 1.93 | 1.90 | 93 | 1012.8 |
| 20260509225100 | 69 | 0 | 0.0 | 2.0 | 0.01 | 1.92 | 1.89 | 93 | 1013.0 |
| 20260509224556 | 69 | 0 | 0.0 | 2.0 | 0.01 | 1.91 | 1.88 | 93 | 1012.9 |
| 20260509224058 | 69 | 0 | 0.0 | 2.0 | 0.01 | 1.91 | 1.88 | 93 | 1012.7 |
| 20260509223553 | 69 | 0 | 0.0 | 2.0 | 0.02 | 1.91 | 1.88 | 93 | 1012.5 |
| 20260509223056 | 69 | 0 | 0.0 | 2.0 | 0.02 | 1.91 | 1.88 | 93 | 1012.4 |
| 20260509222555 | 69 | 191 | 0.0 | 2.0 | 0.02 | 1.91 | 1.88 | 93 | 1012.4 |
| 20260509222052 | 69 | 177 | 0.0 | 2.0 | 0.02 | 1.91 | 1.88 | 93 | 1012.1 |
| 20260509221559 | 69 | 0 | 0.0 | 0.0 | 0.02 | 1.91 | 1.88 | 93 | 1012.0 |
| 20260509221053 | 69 | 0 | 0.0 | 2.0 | 0.02 | 1.91 | 1.88 | 93 | 1011.8 |
| 20260509220557 | 69 | 0 | 0.0 | 2.0 | 0.02 | 1.91 | 1.88 | 93 | 1011.6 |
| 20260509220055 | 69 | 0 | 0.0 | 2.0 | 0.02 | 1.91 | 1.88 | 93 | 1012.0 |
| 20260509215553 | 69 | 0 | 0.0 | 3.0 | 0.02 | 2.01 | 1.88 | 93 | 1012.0 |
| 20260509215054 | 69 | 0 | 0.0 | 3.0 | 0.02 | 2.01 | 1.88 | 93 | 1012.3 |
| 20260509214554 | 69 | 0 | 0.0 | 3.0 | 0.01 | 2.00 | 1.87 | 93 | 1012.2 |
| 20260509214055 | 69 | 0 | 0.0 | 2.0 | 0.01 | 2.00 | 1.87 | 93 | 1012.3 |
| 20260509213553 | 69 | 0 | 0.0 | 2.0 | 0.00 | 1.99 | 1.86 | 93 | 1012.4 |
| 20260509213057 | 69 | 200 | 0.0 | 2.0 | 0.00 | 1.99 | 1.86 | 93 | 1012.3 |
| 20260509212553 | 69 | 165 | 0.0 | 2.0 | 0.00 | 1.99 | 1.86 | 93 | 1012.0 |
| 20260509212052 | 69 | 0 | 0.0 | 2.0 | 0.00 | 1.99 | 1.86 | 93 | 1012.0 |
| 20260509211602 | 68 | 0 | 0.0 | 2.0 | 0.00 | 1.99 | 1.86 | 93 | 1011.9 |
| 20260509211053 | 68 | 0 | 0.0 | 2.0 | 0.00 | 1.99 | 1.86 | 93 | 1011.7 |
| 20260509210557 | 69 | 0 | 0.0 | 2.0 | 0.00 | 1.99 | 1.86 | 93 | 1011.6 |
| 20260509210108 | 69 | 0 | 0.0 | 2.0 | 0.00 | 1.99 | 1.86 | 93 | 1011.6 |
| 20260509205558 | 69 | 0 | 0.0 | 2.0 | 0.00 | 2.88 | 1.86 | 93 | 1011.6 |
| 20260509205052 | 69 | 0 | 0.0 | 2.0 | 0.01 | 2.88 | 1.86 | 93 | 1011.5 |
| 20260509204053 | 69 | 0 | 0.0 | 2.0 | 0.03 | 2.88 | 1.86 | 93 | 1011.7 |
| 20260509203559 | 69 | 88 | 0.0 | 2.0 | 0.04 | 2.88 | 1.86 | 94 | 1011.8 |
| 20260509203100 | 69 | 0 | 0.0 | 2.0 | 0.05 | 2.88 | 1.86 | 94 | 1011.7 |
| 20260509202557 | 68 | 0 | 0.0 | 2.0 | 0.06 | 2.88 | 1.86 | 93 | 1011.9 |
| 20260509202053 | 68 | 0 | 0.0 | 2.0 | 0.06 | 2.88 | 1.86 | 93 | 1012.1 |
| 20260509201607 | 68 | 0 | 0.0 | 2.0 | 0.07 | 2.88 | 1.86 | 93 | 1012.2 |
| 20260509201053 | 68 | 0 | 0.0 | 2.0 | 0.07 | 2.88 | 1.86 | 93 | 1012.4 |
| 20260509200553 | 68 | 0 | 0.0 | 1.0 | 0.08 | 2.88 | 1.86 | 93 | 1012.8 |
| 20260509200103 | 68 | 0 | 0.0 | 2.0 | 0.10 | 2.88 | 1.86 | 93 | 1013.0 |
| 20260509195555 | 68 | 0 | 0.0 | 2.0 | 0.10 | 2.88 | 1.86 | 93 | 1013.0 |
| 20260509195056 | 68 | 0 | 0.0 | 2.0 | 0.10 | 2.87 | 1.85 | 93 | 1013.0 |
| 20260509194600 | 68 | 162 | 0.0 | 1.0 | 0.10 | 2.86 | 1.84 | 93 | 1013.0 |
| 20260509194057 | 68 | 0 | 0.0 | 1.0 | 0.10 | 2.85 | 1.83 | 93 | 1012.9 |
| 20260509193553 | 67 | 0 | 0.0 | 0.0 | 0.10 | 2.84 | 1.82 | 93 | 1013.0 |
| 20260509193056 | 68 | 0 | 0.0 | 2.0 | 0.08 | 2.82 | 1.80 | 93 | 1013.1 |
| 20260509192556 | 67 | 0 | 0.0 | 2.0 | 0.10 | 2.82 | 1.80 | 93 | 1013.2 |
| 20260509192054 | 67 | 0 | 0.0 | 0.0 | 0.11 | 2.82 | 1.80 | 93 | 1013.3 |
| 20260509191555 | 67 | 0 | 0.0 | 2.0 | 0.11 | 2.81 | 1.79 | 93 | 1013.4 |
| 20260509191054 | 67 | 0 | 0.0 | 2.0 | 0.11 | 2.81 | 1.79 | 93 | 1013.6 |
| 20260509190557 | 67 | 0 | 0.0 | 2.0 | 0.11 | 2.80 | 1.78 | 93 | 1013.8 |
| 20260509190109 | 67 | 0 | 0.0 | 0.0 | 0.09 | 2.78 | 1.76 | 93 | 1013.7 |
| 20260509185553 | 67 | 0 | 0.0 | 2.0 | 0.10 | 2.78 | 1.76 | 93 | 1013.7 |
| 20260509185053 | 67 | 0 | 0.0 | 2.0 | 0.09 | 2.77 | 1.75 | 93 | 1013.2 |
| 20260509184557 | 67 | 0 | 0.0 | 2.0 | 0.08 | 2.76 | 1.74 | 93 | 1013.4 |
| 20260509184053 | 67 | 0 | 0.0 | 2.0 | 0.09 | 2.75 | 1.73 | 93 | 1013.3 |
| 20260509183553 | 67 | 0 | 0.0 | 2.0 | 0.09 | 2.74 | 1.72 | 93 | 1013.1 |
| 20260509183055 | 67 | 90 | 0.0 | 2.0 | 0.09 | 2.73 | 1.71 | 93 | 1013.0 |
| 20260509182552 | 67 | 0 | 0.0 | 2.0 | 0.09 | 2.72 | 1.70 | 93 | 1013.1 |
| 20260509182052 | 67 | 0 | 0.0 | 2.0 | 0.10 | 2.71 | 1.69 | 93 | 1013.6 |
| 20260509181604 | 67 | 181 | 0.0 | 2.0 | 0.12 | 2.70 | 1.68 | 93 | 1013.6 |
| 20260509181057 | 67 | 110 | 0.0 | 2.0 | 0.15 | 2.70 | 1.68 | 93 | 1013.4 |
| 20260509180557 | 67 | 0 | 0.0 | 2.0 | 0.16 | 2.69 | 1.67 | 93 | 1013.5 |
| 20260509175553 | 67 | 0 | 1.0 | 3.0 | 0.32 | 2.68 | 1.66 | 92 | 1013.2 |
| 20260509175053 | 67 | 0 | 0.0 | 2.0 | 0.41 | 2.68 | 1.66 | 93 | 1013.2 |
| 20260509174557 | 67 | 78 | 0.0 | 4.0 | 0.46 | 2.68 | 1.66 | 92 | 1013.4 |
| 20260509174053 | 67 | 0 | 0.0 | 4.0 | 0.48 | 2.66 | 1.64 | 93 | 1013.3 |
| 20260509173555 | 67 | 64 | 1.0 | 4.0 | 0.51 | 2.65 | 1.63 | 92 | 1012.8 |
| 20260509173101 | 67 | 90 | 0.0 | 2.0 | 0.52 | 2.64 | 1.62 | 93 | 1013.3 |
| 20260509172556 | 66 | 0 | 0.0 | 2.0 | 0.52 | 2.63 | 1.61 | 92 | 1013.8 |
| 20260509172053 | 66 | 97 | 0.0 | 2.0 | 0.52 | 2.61 | 1.59 | 92 | 1013.6 |
| 20260509171555 | 66 | 0 | 0.0 | 2.0 | 0.50 | 2.57 | 1.55 | 92 | 1013.8 |
| 20260509171054 | 66 | 0 | 0.0 | 2.0 | 0.50 | 2.55 | 1.53 | 92 | 1014.1 |
| 20260509170552 | 66 | 0 | 0.0 | 2.0 | 0.50 | 2.53 | 1.51 | 92 | 1014.0 |
| 20260509170104 | 66 | 0 | 0.0 | 2.0 | 0.43 | 2.43 | 1.41 | 92 | 1013.8 |
| 20260509165600 | 66 | 0 | 0.0 | 2.0 | 0.38 | 2.35 | 1.34 | 92 | 1014.0 |
| 20260509165053 | 66 | 0 | 0.0 | 5.0 | 0.31 | 2.27 | 1.25 | 92 | 1014.0 |
| 20260509164606 | 66 | 47 | 1.0 | 5.0 | 0.32 | 2.22 | 1.20 | 92 | 1013.8 |
| 20260509164058 | 66 | 39 | 1.0 | 6.0 | 0.33 | 2.18 | 1.16 | 92 | 1013.7 |
| 20260509163555 | 66 | 30 | 1.0 | 9.0 | 0.33 | 2.14 | 1.12 | 92 | 1014.1 |
| 20260509163109 | 66 | 357 | 2.0 | 9.0 | 0.37 | 2.09 | 1.08 | 92 | 1014.2 |
| 20260509162553 | 66 | 1 | 1.0 | 6.0 | 0.37 | 2.09 | 1.08 | 92 | 1014.0 |
| 20260509162053 | 66 | 335 | 1.0 | 3.0 | 0.38 | 2.08 | 1.07 | 92 | 1013.9 |
| 20260509161558 | 66 | 70 | 1.0 | 5.0 | 0.35 | 2.06 | 1.04 | 92 | 1013.9 |
| 20260509161056 | 66 | 92 | 0.0 | 5.0 | 0.34 | 2.05 | 1.03 | 92 | 1013.9 |
| 20260509160553 | 66 | 74 | 1.0 | 5.0 | 0.32 | 2.03 | 1.01 | 92 | 1013.9 |
| 20260509160056 | 67 | 38 | 0.0 | 4.0 | 0.29 | 2.00 | 0.98 | 92 | 1013.9 |
| 20260509155552 | 67 | 7 | 0.0 | 4.0 | 0.27 | 1.98 | 0.96 | 92 | 1014.0 |
| 20260509155056 | 67 | 0 | 1.0 | 4.0 | 0.25 | 1.96 | 0.94 | 92 | 1013.9 |
| 20260509154613 | 67 | 1 | 1.0 | 4.0 | 0.19 | 1.90 | 0.88 | 92 | 1013.6 |
| 20260509154053 | 66 | 1 | 1.0 | 9.0 | 0.14 | 1.85 | 0.83 | 91 | 1013.9 |
| 20260509153553 | 67 | 347 | 3.0 | 9.0 | 0.09 | 1.80 | 0.78 | 91 | 1013.6 |